This is the latest recevied weather packets stored in our database for station/object K1LVA. If no packets are shown the sender has not sent any weather packets the latest 1 day(s).
| Time | Temp. | Humidity | Pressure | Rain* | Wind** | Luminosity | Snow |
|---|---|---|---|---|---|---|---|
| 1778095773 | 30° C | 51% | 1014.1 hPa | 0 mm | - | 707 W/m² | - |
| 1778094251 | 29.44° C | 52% | 1014.2 hPa | 0 mm | - | 763 W/m² | - |
| 1778093948 | 29.44° C | 54% | 1014 hPa | 0 mm | - | 712 W/m² | - |
| 1778093645 | 29.44° C | 56% | 1014.2 hPa | 0 mm | - | 550 W/m² | - |
| 1778092735 | 28.33° C | 60% | 1014.2 hPa | 0 mm | - | 743 W/m² | - |
| 1778092425 | 28.33° C | 60% | 1014.1 hPa | 0 mm | - | 755 W/m² | - |
| 1778090912 | 26.67° C | 64% | 1014.8 hPa | 0 mm | - | 714 W/m² | - |
| 1778090304 | 26.11° C | 66% | 1015.3 hPa | 0 mm | - | 707 W/m² | - |
| 1778089692 | 25.56° C | 68% | 1015.5 hPa | 0 mm | - | 397 W/m² | - |
| 1778087270 | 26.11° C | 66% | 1016.5 hPa | 0 mm | - | 384 W/m² | - |
| 1778085755 | 24.44° C | 71% | 1016.5 hPa | 0 mm | - | 257 W/m² | - |
| 1778083633 | 25° C | 73% | 1016.8 hPa | 0 mm | - | 427 W/m² | - |
| 1778083028 | 23.89° C | 75% | 1016.8 hPa | 0 mm | - | 350 W/m² | - |
| 1778081586 | 23.89° C | 74% | 1016.4 hPa | 0 mm | - | 280 W/m² | - |
| 1778080072 | 22.78° C | 76% | 1016.1 hPa | 0 mm | - | 444 W/m² | - |
| 1778079466 | 22.78° C | 78% | 1016.1 hPa | 0 mm | - | 341 W/m² | - |
| 1778078860 | 22.22° C | 78% | 1016.3 hPa | 0 mm | - | 255 W/m² | - |
| 1778078557 | 22.22° C | 79% | 1016.4 hPa | 0 mm | - | 212 W/m² | - |
| 1778077952 | 22.22° C | 80% | 1016.2 hPa | 0 mm | - | 291 W/m² | - |
| 1778077348 | 21.67° C | 80% | 1016.4 hPa | 0 mm | - | 276 W/m² | - |
| 1778076744 | 21.11° C | 81% | 1016.5 hPa | 0 mm | - | 288 W/m² | - |
| 1778076138 | 21.11° C | 82% | 1016.3 hPa | 0 mm | - | 214 W/m² | - |
| 1778075531 | 20.56° C | 82% | 1016.2 hPa | 0 mm | - | 235 W/m² | - |
| 1778074924 | 20.56° C | 82% | 1016.2 hPa | 0 mm | - | 198 W/m² | - |
| 1778073712 | 20° C | 82% | 1016 hPa | 0 mm | - | 539 W/m² | - |
* Rain latest hour (hover to see other rain measurements)
** Current wind speed in m/s (hover to see current wind gust speed)